This is the latest recevied weather packets stored in our database for station/object XE2B-20. If no packets are shown the sender has not sent any weather packets the latest 10 day(s).
| Time | Temp. | Humidity | Pressure | Rain* | Wind** | Luminosity | Snow |
|---|---|---|---|---|---|---|---|
| 1788123819 | 35.56° C | 30% | 806.6 hPa | - | - | - | - |
| 1788122320 | 32.78° C | 32% | 807.3 hPa | - | - | - | - |
| 1788120818 | 27.78° C | 38% | 807.8 hPa | - | - | - | - |
| 1788119322 | 28.33° C | 38% | 808.2 hPa | - | - | - | - |
| 1788117828 | 32.22° C | 33% | 808.8 hPa | - | - | - | - |
| 1788116321 | 31.67° C | 34% | 808.9 hPa | - | - | - | - |
| 1788114823 | 32.78° C | 33% | 809.3 hPa | - | - | - | - |
| 1788113322 | 33.33° C | 32% | 809.5 hPa | - | - | - | - |
| 1788111822 | 31.67° C | 33% | 809.7 hPa | - | - | - | - |
| 1788110322 | 29.44° C | 36% | 810.1 hPa | - | - | - | - |
| 1788108823 | 27.78° C | 37% | 810.2 hPa | - | - | - | - |
| 1788107330 | 25.56° C | 39% | 810.4 hPa | - | - | - | - |
| 1788105825 | 24.44° C | 41% | 810.4 hPa | - | - | - | - |
| 1788104325 | 23.33° C | 42% | 810.3 hPa | - | - | - | - |
| 1788102826 | 23.89° C | 41% | 810.3 hPa | - | - | - | - |
| 1788101327 | 21.67° C | 42% | 810.4 hPa | - | - | - | - |
| 1788099826 | 20.56° C | 44% | 810.3 hPa | - | - | - | - |
| 1788098327 | 19.44° C | 43% | 810.2 hPa | - | - | - | - |
| 1788096827 | 15° C | 49% | 810.3 hPa | - | - | - | - |
| 1788095348 | 13.89° C | 50% | 810.1 hPa | - | - | - | - |
| 1788094000 | 13.89° C | 51% | 809.9 hPa | - | - | - | - |
| 1788093836 | 13.89° C | 51% | 809.9 hPa | - | - | - | - |
| 1788092331 | 13.33° C | 51% | 809.5 hPa | - | - | - | - |
| 1788090833 | 13.89° C | 50% | 809.5 hPa | - | - | - | - |
| 1788089343 | 13.89° C | 50% | 809.3 hPa | - | - | - | - |
* Rain since midnight (hover to see other rain measurements)
** Current wind speed in m/s (hover to see current wind gust speed)